Regional Weather Roundup
Issued by NWS

Home | Current Version | Previous Version | Text Only | Print | Product List | Glossary On
Versions: 1 2 3 4 5 6 7 8 9 10 11 12 13 14 15 16 17 18 19 20 21 22 23 24 25 26 27 28 29 30 31 32 33 34 35 36 37 38 39 40 41 42 43 44 45 46 47 48 49 50
000
ASUS43 KMPX 281001
RWRMN
WEATHER ROUNDUP FOR MINNESOTA
NATIONAL WEATHER SERVICE TWIN CITIES/CHANHASSEN MN
500 AM CDT FRI AUG 28 2015


NOTE: "FAIR" INDICATES FEW OR NO CLOUDS BELOW 12,000 FEET WITH NO
SIGNIFICANT WEATHER AND/OR OBSTRUCTIONS TO VISIBILITY. N/A MEANS
CURRENT SKY AND/OR WEATHER CONDITIONS ARE NOT AVAILABLE.

MNZ060>063-068>070-281100-
   Twin Cities Metro

CITY           SKY/WX    TMP DP  RH WIND       PRES   REMARKS
TWIN CITIES    CLOUDY    64  60  87 SE7       29.99S
ST PAUL        CLOUDY    62  60  93 CALM      30.00S
CRYSTAL        CLOUDY    63  59  87 S5        29.97F
BLAINE         MOCLDY    63  63 100 CALM      29.98F
LAKEVILLE      CLOUDY    61  61 100 CALM      30.00R
EDEN PRAIRIE   CLOUDY    63  60  90 SE6       29.98R
SOUTH ST PAUL  CLOUDY    63  60  90 CALM      29.99S
LAKE ELMO      FAIR      61  59  94 CALM      30.01S
$$
MNZ001>005-007-008-013>017-022>024-027-028-281100-
   Northwest Minnesota

CITY           SKY/WX    TMP DP  RH WIND       PRES   REMARKS
BEMIDJI        FOG       63  63  99 S6        29.93S VSB 1/2
HALLOCK        MOCLDY    64  63  94 S6        29.85R
ROSEAU         PTCLDY    63  57  82 CALM      29.88R
WARROAD        PTCLDY    61  55  82 SW3       29.88S FOG
THIEF RVR FALL PTCLDY   N/A N/A N/A S7        29.88R
CROOKSTON      PTCLDY    64  63  94 S9        29.88S
FOSSTON        MOCLDY    63  63 100 S8        29.92S
DETROIT LAKES  MOCLDY    63  63 100 S6        29.95S FOG
MOORHEAD       PTCLDY    63  63 100 S9        29.92S
PARK RAPIDS    FOG       64  63  96 S6        29.96R VSB 3/4
MAHNOMEN       FAIR      64  63  98 S9        29.91F
$$
MNZ006-009>011-018-025>026-281100-
   North Central Minnesota

CITY           SKY/WX    TMP DP  RH WIND       PRES   REMARKS
BAUDETTE       FOG       60  59  96 SE6       29.88F VSB 1
FLAG ISLAND    MOCLDY    64  63  94 S3        29.86F FOG
INTL FALLS     MOCLDY    61  60  97 CALM      29.91S
WASKISH        PTCLDY    63  63 100 CALM      29.90F
BIG FORK       CLOUDY    63  63 100 SW5       29.94F FOG
LONGVILLE      CLOUDY    64  63  94 S5        29.95R FOG
GRAND RAPIDS     N/A     61  57  88 S5        29.96R
CRANE LAKE     CLEAR     57  57 100 S3        29.96R
ORR            MOCLDY    57  55  94 CALM      29.94R
COOK           CLOUDY    61  59  94 CALM      29.96R
WALKER         CLOUDY    64  63  96 S5        29.94R
$$
MNZ012-019>021-037-281100-
   Northeast Minnesota

CITY           SKY/WX    TMP DP  RH WIND       PRES   REMARKS
DULUTH         PTCLDY    59  56  89 S5        29.97F
ELY            CLEAR     57  55  94 CALM      29.96F
HIBBING        CLOUDY    56  56 100 CALM      29.97R
EVELETH        CLOUDY    59  59 100 CALM      29.98S
DULUTH HARBOR  MOCLDY    55  54  94 CALM      29.98S
TWO HARBORS    CLOUDY    63  57  82 CALM      29.96S
SILVER BAY     CLOUDY    59  55  88 CALM      29.96F
GRAND MARAIS     N/A     53  50  89 CALM      29.97S
G MARAIS ARPRT CLOUDY    55  50  82 SW3       30.00S
$$
MNZ029>031-032-039>041-046>048-054>057-064-281100-
   West Central Minnesota

CITY           SKY/WX    TMP DP  RH WIND       PRES   REMARKS
FERGUS FALLS   FOG       64  64 100 S6        29.94S VSB 1/2
WHEATON        FOG       61  59  94 S3        29.95F VSB 1/4
MORRIS         CLEAR     59  57  94 SE5       29.95S FOG
ALEXANDRIA     CLEAR     61  61 100 S7        29.97S
ELBOW LAKE     FAIR      61  61  99 S7        29.95S
WADENA         DRZL/FOG  63  61  94 S3        29.96S VSB 1/4
GLENWOOD       FAIR      59  59 100 S7        29.98R
APPLETON       PTCLDY    63  61  94 SE6       29.96R
BENSON         CLEAR     61  57  88 S5        29.97R
ORTONVILLE     PTCLDY    61  59  94 CALM      29.95S FOG
MADISON        CLOUDY    63  61  94 SE5       29.96S
WILLMAR        MOCLDY    61  61 100 CALM      30.00R
$$
MNZ033>034-036-042>043-049>051-058-059-281100-
   Central Minnesota

CITY           SKY/WX    TMP DP  RH WIND       PRES   REMARKS
ST CLOUD       CLEAR     59  58  96 S3        29.98S
SAUK CENTRE    FAIR      58  58  99 CALM      29.97S
PAYNESVILLE    CLEAR     60  59  96 SE6       29.99R
AITKIN         MOCLDY    64  59  82 S6        29.96R
PINE RIVER     CLOUDY    63  63 100 S5        30.00R
BRAINERD       PTCLDY    59  58  96 S6        29.97S
STAPLES        CLOUDY    63  61  94 S5        29.96S
LONG PRAIRIE   FAIR      59  57  94 S5        29.97S
LITTLE FALLS   FOG       55  54  94 SE3       29.97S VSB 1
LITCHFIELD     PTCLDY    59  59 100 CALM      29.99S
BUFFALO        MOCLDY    58  56  91 CALM      30.00R
MAPLE LAKE     PTCLDY    58  58  98 CALM      30.00R
$$
MNZ037-044-045-052-053-281100-
   East Central Minnesota

CITY           SKY/WX    TMP DP  RH WIND       PRES   REMARKS
PRINCETON      PTCLDY    63  59  88 S3        29.99R
MORA           CLEAR     55  54  94 CALM      29.99F
CAMBRIDGE      PTCLDY    61  54  77 S3        29.97S
RUSH CITY      PTCLDY    58  56  94 S3        29.99S
MOOSE LAKE     MOCLDY    59  55  88 SW5       29.96S
HINCKLEY       FAIR      54  54 100 CALM      29.99S
CLOQUET        CLOUDY    59  55  88 CALM      29.98S
MCGREGOR       CLOUDY    63  61  94 S5        29.97S
$$
MNZ071>073-080-081-089-090-097-098-281100-
   Southwest Minnesota

CITY           SKY/WX    TMP DP  RH WIND       PRES   REMARKS
MONTEVIDEO     CLOUDY    61  61 100 S6        29.99R
GRANITE FALLS  PTCLDY    60  59  98 CALM      29.98S
CANBY          CLOUDY    62  61  97 CALM      29.97F FOG
MARSHALL       MOCLDY    64  59  82 SE5       29.97R
REDWOOD FALLS  MOCLDY    65  62  90 S9        29.96F
OLIVIA         MOCLDY    57  54  88 CALM      29.97S
PIPESTONE      CLOUDY    64  63  94 SE8       29.94F
WINDOM         RAIN      64  61  88 SE9       29.98S
WORTHINGTON    CLOUDY    63  57  82 SE10      29.97R
JACKSON        CLOUDY    63  63 100 SE13      29.99S
TRACY          CLOUDY    65  63  91 SE5       29.96S
SLAYTON        DRIZZLE   62  62 100 CALM      29.98S
$$
MNZ065>067-074>077-082>085-091>093-281100-
   South Central Minnesota

CITY           SKY/WX    TMP DP  RH WIND       PRES   REMARKS
MANKATO        CLOUDY    64  61  88 S12G17    29.99F
NEW ULM        CLOUDY    64  63  94 S10       29.97F
ST JAMES       LGT RAIN  64  63  94 SE10      30.00S
FAIRMONT       CLOUDY    63  57  82 S13       30.00S
GLENCOE        CLOUDY    62  61  98 E3        29.99R
FARIBAULT      DRIZZLE   64  63  94 S8        30.01S
OWATONNA       CLOUDY    64  61  88 S10       30.02R
WASECA         HVY RAIN  63  59  88 SE8       30.03S
ALBERT LEA     CLOUDY    63  63 100 S6        30.04R
$$
MNZ078>079-086>088-094>096-281100-
   Southeast Minnesota

CITY           SKY/WX    TMP DP  RH WIND       PRES   REMARKS
ROCHESTER      LGT RAIN  62  60  93 S20G25    30.03S
RED WING       CLOUDY    64  61  88 SE6       29.98F
STANTON        CLOUDY    64  60  87 CALM      29.99R
DODGE CENTER   LGT RAIN  63  61  94 S20G26    30.02R
WINONA         CLOUDY    64  57  77 SE3       30.04S
AUSTIN         CLOUDY    63  61  94 S8        30.03F
PRESTON        CLOUDY    60  58  91 S8        30.05S
$$
ABBREVIATIONS USED IN REMARKS
   TC - TEMPERATURES IN CELSIUS
  WCI - WIND CHILL INDEX
   HX - HEAT INDEX
  VSB - VISIBILITY
$$



USA.gov is the U.S. government's official web portal to all federal, state and local government web resources and services.